Powrót do katalogu

STARLINK-31491

AktywnyŁącznośćVLEO
NORAD 59011·PAYLOAD·🇺🇸 United States

Wystrzelony Feb 23, 2024 z Vandenberg Space Force Base

Loading…

Następne Przeloty (najbliższe 24 godziny)

TLE

ŚwieżeSource: CelesTrak SupGP

Epoka: Sep 15, 2026, 03:05 UTC

1 59011C 24036P   26258.12895833 -.00006493  00000+0 -19181-3 0  2587
2 59011  53.1571 277.0744 0001193  84.9783 257.2095 15.34396509    10

Śledź STARLINK-31491 w czasie rzeczywistym z AllMySat

Download on the App Store